Regional Weather Roundup
Issued by NWS Austin/San Antonio, TX

Home | Current Version | Previous Version | Text Only | Print | Product List | Glossary On
Versions: 1 2 3 4 5 6 7 8 9 10 11 12 13 14 15 16 17 18 19 20 21 22 23 24 25 26 27 28 29 30 31 32 33 34 35 36 37 38 39 40 41 42 43 44 45 46 47 48 49 50
000
ASUS44 KEWX 221602
RWREWX
SOUTH TEXAS REGIONAL WEATHER ROUNDUP
NATIONAL WEATHER SERVICE AUSTIN/SAN ANTONIO TX
1100 AM CDT TUE AUG 22 2017

NOTE: "FAIR" INDICATED FEW OR NO CLOUDS BELOW 12,000 FEET WITH NO
SIGNIFICANT WEATHER AND/OR OBSTRUCTIONS TO VISIBILITY.

* - THESE STATIONS ARE NOT NWS OR FAA STATIONS...AND ARE NOT SUBJECT
    TO NWS AND FAA QUALITY CONTROL.

TXZ171-172-183>190-221700-
TEXAS HILL COUNTRY AND EDWARDS PLATEAU

CITY           SKY/WX    TMP DP  RH WIND       PRES   REMARKS
JUNCTION       SUNNY     83  67  58 SW7       30.13R
*LLANO         SUNNY     84  72  65 S6        30.14S
BURNET         SUNNY     84  70  62 VRB6      30.14R
*HORSESHOE BAY SUNNY     86  69  57 CALM      30.11S HX  90
*KERRVILLE     SUNNY     82  71  68 SW5       30.13R
*FREDERICKSBRG SUNNY     81  67  62 S7        30.13S
*ROCKSPRINGS   NOT AVBL
*BOERNE STAGE  MOSUNNY  N/A N/A N/A SW7       30.13S
*CASTROVILLE   MOSUNNY   85  69  57 S8        30.10S
HONDO          SUNNY     85  71  63 CALM      30.10S HX  90
*UVALDE        SUNNY     83  69  62 CALM      30.09S
DEL RIO        SUNNY     85  71  63 VRB5      30.07R HX  90
LAUGHLIN AFB   MOSUNNY   85  71  62 SE8       30.07S HX  90
CARRIZO SPRGS  SUNNY     86  70  58 SE5       30.05S HX  90
*EAGLE PASS    MOSUNNY   88  70  55 VRB5      30.07  HX  92
$$

TXZ173-191>194-202-209-217>225-228-221700-
CENTRAL AND SOUTH CENTRAL TEXAS

CITY           SKY/WX    TMP DP  RH WIND       PRES   REMARKS
GEORGETOWN     SUNNY     86  71  60 SW7       30.11R HX  91
AUSTIN/BERGSTM MOSUNNY   88  72  58 SW7       30.08S HX  94
AUSTIN/MABRY   SUNNY     90  69  50 W5        30.10R HX  94
*AUSTIN/EXEC   MOSUNNY   86  72  62 SW7       30.10R HX  92
*LAGO VISTA    SUNNY     84  71  63 W7        30.13R
SAN MARCOS     MOSUNNY   88  73  61 VRB5      30.09S HX  95
NEW BRAUNFELS  SUNNY     88  70  55 VRB7      30.08R HX  93
RANDOLPH AFB   SUNNY     85  71  63 SW6       30.09R HX  90
PT SAN ANTONIO MOSUNNY   84  73  67 CALM      30.08R HX  90
SAN ANTONIO    MOSUNNY   85  70  60 SW7       30.10R
STINSON FIELD  MOSUNNY   88  73  61 SE6       30.07R HX  95
*LA GRANGE     MOSUNNY   89  74  59 S6        30.06S HX  98
*GIDDINGS      SUNNY     87  70  57 SW3       30.10S HX  92
*GONZALES      MOSUNNY   87  74  66 S3        30.07S HX  95
$$

TXZ163>164-176>182-195>201-210>213-226-227-235-221700-
SOUTHEAST TEXAS

CITY           SKY/WX    TMP DP  RH WIND       PRES   REMARKS
COLLEGE STN    PTSUNNY   86  74  67 W8        30.09S HX  94
*BRYAN         PTSUNNY   92  71  49 W6        30.11R HX  99
*CALDWELL      NOT AVBL
*CROCKETT      MOSUNNY   86  73  66 W7        30.12S HX  93
*BRENHAM       MOSUNNY   89  72  57 W6        30.10R HX  96
HUNTSVILLE     MOSUNNY   88  70  55 VRB5      30.10R HX  93
CONROE         PTSUNNY   88  72  58 CALM      30.10R HX  94
HOUSTON BUSH   MOSUNNY   87  73  62 CALM      30.09R HX  94
HOUSTON HOBBY  MOSUNNY   91  69  48 CALM      30.07S HX  96
*HOUSTON SW AP SUNNY     88  70  55 CALM      30.09R HX  93
PEARLAND       MOSUNNY   90  71  53 S3        30.09R HX  96
HOUSTON HOOKS  MOSUNNY   88  74  63 S3        30.09R HX  96
ELLINGTON FLD  MOSUNNY   91  72  52 CALM      30.10R HX  98
SUGAR LAND     SUNNY     91  74  57 NE5       30.08R HX 100
*HOUSTON EXEC  MOSUNNY   86  73  66 CALM      30.10S HX  93
*CLEVELAND MUN PTSUNNY   86  74  69 CALM      30.10S HX  94
*WHARTON       PTSUNNY   87  71  60 CALM      30.08S HX  92
*COLUMBUS      PTSUNNY   85  73  66 CALM      30.10R HX  92
*EAGLE LAKE    SUNNY     88  77  70 NE5       30.08S HX 101
$$

TXZ214>216-236>238-221700-
THE UPPER TEXAS COAST

CITY           SKY/WX    TMP DP  RH WIND       PRES   REMARKS
*ORANGE        PTSUNNY   86  78  77 NW5       30.10S HX  98
PORT ARTHUR    MOSUNNY   86  75  69 CALM      30.08R HX  95
GALVESTON      PTSUNNY   89  77  67 N6        30.08R HX 101
ANGLETON       MOSUNNY   89  76  65 N6        30.08R HX 100
*BAY CITY      SUNNY     89  73  59 SE3       30.07R HX  97
PALACIOS       PTSUNNY   85  73  67 CALM      30.06R HX  91
$$

TXZ229>234-239>247-221700-
TEXAS COASTAL BEND AND RIO GRANDE PLAINS

CITY           SKY/WX    TMP DP  RH WIND       PRES   REMARKS
VICTORIA       MOSUNNY   90  71  53 VRB3      30.07R HX  96
*BEEVILLE      MOSUNNY   89  72  56 S6        30.06R HX  96
ROCKPORT       SUNNY     90  75  61 E9        30.05R HX 100
*PORT ARANSAS  SUNNY     86  76  70 E9        30.06R HX  96
*PORT LAVACA   MOSUNNY   88  73  62 E7        30.07R HX  96
*INGLESIDE     MOSUNNY   90  75  61 MISG      30.05R HX 100
CORPUS CHRISTI PTSUNNY   87  74  64 CALM      30.04R HX  95
CORPUS NAS     MOSUNNY   91  77  63 SE10      30.05R HX 104
*ROBSTOWN      MOSUNNY   88  71  57 SE5       30.05R HX  94
ALICE            N/A     88  70  55 SE7       30.04R HX  93
KINGSVILLE NAS PTSUNNY   89  75  63 NE3       30.04R HX  99
COTULLA        SUNNY     85  70  60 CALM      30.06S
*FAITH RANCH   SUNNY     88  72  58 VRB5      30.06S HX  94
LAREDO         SUNNY     87  72  60 SE3       30.05R HX  93
$$

TXZ248>255-221700-
DEEP SOUTH TEXAS

CITY           SKY/WX    TMP DP  RH WIND       PRES   REMARKS
BROWNSVILLE    LGT RAIN  87  73  62 E6        30.02S HX  94
PORT ISABEL    MOSUNNY   89  76  65 E10       30.02R HX 100
*SOUTH PADRE   NOT AVBL
HARLINGEN      SUNNY     90  72  55 CALM      30.02R HX  97
*HEBBRONVILLE  MOSUNNY   86  68  55 SE7       30.07R
MCALLEN        MOSUNNY   88  73  61 VRB3      30.03R HX  95
*WESLACO       PTSUNNY   86  72  62 CALM      30.02R HX  92
FALFURRIAS     MOSUNNY   89  69  52 CALM      30.04R HX  94
EDINBURG       PTSUNNY   90  71  53 SE5       30.04R HX  95
*ZAPATA        MOSUNNY   90  69  51 CALM      30.03R HX  94
$$

TXZ213>215-236>238-242>244-246-247-251-254-255-221700-
CMAN STATIONS

STATION/POSITION TIME  TEMP    WIND        PRES    WAVE
                       AIR SEA DIR/SP/G            HT/PER
                 (UTC) (F)     (DEG/KT/KT) (MB)    (FT/S)
SABINE PASS      1524   86 90   40/  4/  8 1019.9
SEA RIM ST PARK  1500   84      40/  5/  6 1018.8
NORTH JETTY/GLS  1524      88   CALM  /  1 1017.8
EAGLE POINT      1524   85 88   60/  6/  8 1018.6
MORGANS POINT    1524   85 88   60/  5/  5 1018.4
MISSION/ARANSAS  1500          100/  4     1017.0
PORT O`CONNOR    1524   85      30/  3/  4 1017.4
PORT ARANSAS     1500   83 84   70/  6/  6 1017.3
MALAQUITE BEACH  1524   83 86   60/  7/  8 1016.8
BAFFIN BAY       1524   85 86              1017.3
PORT ISABEL      1524   84 84              1016.8
$$



USA.gov is the U.S. government's official web portal to all federal, state and local government web resources and services.